TimeMST,TemperatureF,Dew PointF,Humidity,Sea Level PressureIn,VisibilityMPH,Wind Direction,Wind SpeedMPH,Gust SpeedMPH,PrecipitationIn,Events,Conditions,WindDirDegrees,DateUTC
12:53 AM,19.0,14.0,81,29.92,10.0,ESE,4.6,-,N/A,,Clear,120,2013-01-08 07:53:00
1:53 AM,21.0,15.1,78,29.92,10.0,SSE,4.6,-,N/A,,Clear,150,2013-01-08 08:53:00
2:53 AM,21.0,15.1,78,29.92,10.0,South,3.5,-,N/A,,Scattered Clouds,170,2013-01-08 09:53:00
3:53 AM,19.9,15.1,81,29.95,10.0,Calm,Calm,-,N/A,,Overcast,0,2013-01-08 10:53:00
4:53 AM,19.9,14.0,78,29.97,10.0,ESE,5.8,-,N/A,,Overcast,110,2013-01-08 11:53:00
5:53 AM,19.9,15.1,81,29.98,10.0,South,3.5,-,N/A,,Overcast,180,2013-01-08 12:53:00
6:53 AM,19.0,14.0,81,30.00,10.0,SSE,5.8,-,N/A,,Overcast,150,2013-01-08 13:53:00
7:53 AM,16.0,10.9,81,30.03,10.0,Calm,Calm,-,N/A,,Scattered Clouds,0,2013-01-08 14:53:00
8:53 AM,16.0,12.0,84,30.07,10.0,Variable,3.5,-,N/A,,Clear,0,2013-01-08 15:53:00
9:53 AM,19.9,12.9,74,30.08,10.0,Calm,Calm,-,N/A,,Clear,0,2013-01-08 16:53:00
10:53 AM,25.0,16.0,69,30.08,10.0,SSE,3.5,-,N/A,,Partly Cloudy,160,2013-01-08 17:53:00
11:53 AM,28.9,17.1,61,30.06,10.0,SSE,5.8,-,N/A,,Clear,150,2013-01-08 18:53:00
12:53 PM,32.0,18.0,56,30.06,10.0,ESE,3.5,-,N/A,,Clear,120,2013-01-08 19:53:00
1:53 PM,35.1,19.9,54,30.07,10.0,ESE,3.5,-,N/A,,Clear,110,2013-01-08 20:53:00
2:53 PM,34.0,19.9,56,30.10,10.0,South,5.8,-,N/A,,Clear,170,2013-01-08 21:53:00
3:53 PM,34.0,21.0,59,30.12,10.0,SSE,5.8,-,N/A,,Clear,160,2013-01-08 22:53:00
4:53 PM,30.0,19.9,66,30.14,10.0,East,5.8,-,N/A,,Clear,100,2013-01-08 23:53:00
5:53 PM,28.9,19.9,69,30.14,10.0,SSE,4.6,-,N/A,,Overcast,150,2013-01-09 00:53:00
6:53 PM,28.0,19.9,72,30.17,10.0,Calm,Calm,-,N/A,,Overcast,0,2013-01-09 01:53:00
7:53 PM,26.1,18.0,71,30.20,10.0,ESE,4.6,-,N/A,,Mostly Cloudy,120,2013-01-09 02:53:00
8:53 PM,24.1,16.0,71,30.23,10.0,SE,5.8,-,N/A,,Mostly Cloudy,140,2013-01-09 03:53:00
9:53 PM,21.9,15.1,75,30.23,10.0,Calm,Calm,-,N/A,,Partly Cloudy,0,2013-01-09 04:53:00
10:53 PM,16.0,12.0,84,30.25,10.0,Calm,Calm,-,N/A,,Clear,0,2013-01-09 05:53:00
11:53 PM,14.0,10.0,84,30.27,10.0,Calm,Calm,-,N/A,,Clear,0,2013-01-09 06:53:00